Tracking 19638 objects as of 21-Apr-2019
HD Live streaming from Space Station
objects crossing your sky now

THORAD AGENA D DEB


10-day predictions


NORAD ID: 4643
Int'l Code: 1970-025AB
Perigee: 1,056.0 km
Apogee: 1,071.5 km
Inclination: 99.7 °
Period: 106.3 minutes
Semi major axis: 7434 km
RCS: 0.1272 m2 (medium)
Launch date: April 8, 1970
Source: United States (US)
Launch site: AIR FORCE WESTERN TEST RANGE (AFWTR)

Note: This is SATELLITE DEBRIS
aabbcc
Your satellite tracking list
Your tracking list is empty




NASA's NSSDC Master Catalog

Two Line Element Set (TLE):
1  4643U 70025AB  19111.58158118  .00000039  00000-0  12179-3 0  9996
2  4643  99.6925  11.2419 0010470 314.9791 119.2208 13.54261164418406
Source of the keplerian elements: AFSPC